Location: *
(51.1248°S, 108.4023°W)
Time: 00:04:03
(UTC+00:00)

Cosmos 1707 Rocket - Visible Passes

Search period start: 24 October 2021 00:00
Search period end: 03 November 2021 00:00
Orbit: 604 x 632 km, 82.5° (Epoch: 23 October)

Date Brightness Start Highest point End Pass type
(mag) Time Alt. Az. Time Alt. Az. Time Alt. Az.
24 Oct 6.1 05:40:46 10° SSE 05:42:43 12° ESE 05:43:40 12° ESE visible
24 Oct 3.9 07:16:47 10° S 07:20:48 66° SSE 07:20:48 66° SSE visible
24 Oct 5.8 08:56:14 10° SW 08:57:55 14° WSW 08:57:55 14° WSW visible
25 Oct 5.6 05:56:50 10° SSE 06:00:08 19° ESE 06:00:37 19° ESE visible
25 Oct 4.1 07:33:55 10° SSW 07:37:45 54° SW 07:37:45 54° SW visible
26 Oct 4.9 06:13:25 10° S 06:17:28 30° ESE 06:17:35 30° ESE visible
26 Oct 4.7 07:51:12 10° SSW 07:54:43 34° WSW 07:54:43 34° WSW visible
27 Oct 4.2 06:30:15 10° S 06:34:33 48° ESE 06:34:33 48° ESE visible
27 Oct 5.3 08:08:42 10° SW 08:11:41 22° WSW 08:11:41 22° WSW visible
28 Oct 6.0 05:11:07 10° SSE 05:13:10 13° ESE 05:14:24 12° ESE visible
28 Oct 3.7 06:47:13 10° S 06:51:32 76° SSE 06:51:32 76° SSE visible
28 Oct 5.8 08:26:44 10° SW 08:28:40 14° WSW 08:28:40 14° WSW visible
29 Oct 5.5 05:27:14 10° SSE 05:30:35 20° ESE 05:31:23 19° ESE visible
29 Oct 3.9 07:04:21 10° SSW 07:08:31 58° WSW 07:08:31 58° WSW visible
30 Oct 4.8 05:43:50 10° S 05:47:55 30° ESE 05:48:23 30° E visible
30 Oct 4.6 07:21:38 10° SSW 07:25:31 35° W 07:25:31 35° W visible
31 Oct 4.1 06:00:40 10° S 06:05:08 49° ESE 06:05:24 49° E visible
31 Oct 5.3 07:39:10 10° SW 07:42:32 22° W 07:42:32 22° W visible
01 Nov 5.9 04:41:30 10° SSE 04:43:36 13° ESE 04:45:16 11° E visible
01 Nov 3.5 06:17:39 10° S 06:22:15 83° E 06:22:25 81° ENE visible
01 Nov 5.9 07:57:13 10° SW 07:59:24 13° W 07:59:33 13° W visible
02 Nov 5.4 04:57:38 10° SSE 05:01:02 20° ESE 05:02:18 18° E visible
02 Nov 3.8 06:34:47 10° SSW 06:39:17 58° W 06:39:26 58° WNW visible
